Regional Weather Roundup
Issued by NWS

Home | Current Version | Previous Version | Text Only | Print | Product List | Glossary On
Versions: 1 2 3 4 5 6 7 8 9 10 11 12 13 14 15 16 17 18 19 20 21 22 23 24 25 26 27 28
000
ASUS45 KBOI 210310
RWRID

IDAHO REGIONAL WEATHER ROUNDUP
NATIONAL WEATHER SERVICE BOISE ID
900 PM MDT FRI OCT 20 2017

NOTE: "FAIR" INDICATES FEW OR NO CLOUDS BELOW 12000 FEET
WITH NO SIGNIFICANT WEATHER AND/OR OBSTRUCTIONS TO VISIBILITY

IDZ012-014-210400-
SOUTHWEST IDAHO


CITY           SKY/WX    TMP DP  RH WIND       PRES   REMARKS
BOISE          MOCLDY    46  32  58 W5        29.95R
CALDWELL       MOCLDY    47  33  58 SW8       29.96R
MOUNTAIN HOME  MOCLDY    47  31  53 SW10      29.96R
$$

IDZ016-017-210400-
SOUTHCENTRAL IDAHO


CITY           SKY/WX    TMP DP  RH WIND       PRES   REMARKS
BURLEY         MOCLDY    38  30  73 SW10      29.94R WCI  31
JEROME         MOCLDY    39  33  79 SW10      29.95R WCI  32
TWIN FALLS     CLOUDY    39  31  72 S12       29.96R WCI  32
$$

IDZ019>023-210400-
SOUTHEAST IDAHO


CITY           SKY/WX    TMP DP  RH WIND       PRES   REMARKS
IDAHO FALLS    CLOUDY    39  27  62 SW18      29.84R WCI  30
POCATELLO      CLEAR     39  29  67 SW28      29.89R WCI  28
REXBURG        CLOUDY    34  33  96 NE9       29.83R WCI  27
$$

IDZ006-010-011-018-031-032-210400-
CENTRAL IDAHO MOUNTAINS


CITY           SKY/WX    TMP DP  RH WIND       PRES   REMARKS
MCCALL         PTCLDY    32  29  88 CALM      29.87R
HAILEY         MOCLDY    36  27  69 NW6       29.91R WCI  31
STANLEY          N/A     29  27  92 NW3       29.90R
SALMON         CLOUDY    39  30  70 S16       29.85R WCI  30
CHALLIS        MOCLDY    37  22  54 SW7       29.85R WCI  32
$$

IDZ002-004-006-007-026-210400-
NORTHERN IDAHO


CITY           SKY/WX    TMP DP  RH WIND       PRES   REMARKS
LEWISTON       MOCLDY    49  35  58 W6        29.86R
LOWELL           N/A     41  40  96 CALM      29.92R
COEUR D`ALENE  CLOUDY    47  36  65 SW13      29.79R
MULLAN PASS    SNOW      29  27  92 VRB5      29.75R VSB 1/4 WCI  24
$$




USA.gov is the U.S. government's official web portal to all federal, state and local government web resources and services.